Vorticity
6 6 7 6 7 10 15 7 7 7 6 3 -1 1 4 3 2 1 1 1 1 2 3 4 5 6 6 7 8 14 13 6 7 7 14 7 11 15 12 8 11 12 10 9 7
6 7 7 8 10 16 9 6 5 6 5 3 1 2 4 3 2 1 2 1 1 3 4 2 4 5 5 5 4 5 2 8 4 6 6 3 3 1 5 5 7 9 12 12 9
7 7 10 11 13 16 7 5 5 5 4 3 3 2 4 4 3 2 2 1 2 5 7 8 7 6 5 6 7 4 7 3 8 8 9 8 8 6 7 6 9 11 7 4 5
7 10 11 13 15 12 6 6 5 4 3 2 3 3 3 4 1 16 6 9 5 4 12 11 7 5 6 7 10 9 11 9 7 9 8 7 6 8 9 11 12 11 9 8 8
8 10 12 14 16 11 5 5 5 4 3 4 2 3 3 4 2 -7 -4 1 7 5 10 7 7 8 8 6 8 9 8 6 7 6 6 8 9 9 15 17 15 13 10 10 10
9 10 10 13 13 8 5 5 5 4 3 3 2 3 4 3 6 6 4 7 6 3 9 7 7 8 9 10 5 6 10 6 5 9 10 11 11 5 19 10 14 12 12 12 12
8 9 9 10 12 9 7 5 5 4 4 3 4 4 4 5 1 2 5 7 1 5 8 8 8 9 5 7 5 2 10 12 23 10 1 9 15 25 -2 -0 -2 6 3 6 10
7 8 7 7 10 12 9 7 6 6 5 4 5 4 5 7 9 8 7 6 9 8 10 9 8 6 5 5 6 7 26 13 -15 9 -7 12 3 4 16 6 -2 1 3 5 2
7 7 7 5 6 6 9 13 13 12 10 11 10 10 15 12 11 11 9 8 7 8 8 8 7 5 6 9 20 13 1 0 14 -4 8 3 2 4 12 14 11 10 12 10 9
7 7 7 6 6 7 7 6 7 7 7 8 8 9 6 0 2 3 7 7 5 10 9 8 5 4 9 11 -6 -8 1 5 2 -17 5 8 5 11 14 16 17 14 10 8 7
6 6 6 6 7 9 5 6 6 8 8 7 -12 -1 6 0 1 3 5 5 9 10 8 7 7 0 3 13 14 11 7 5 10 -2 14 -2 7 13 37 19 17 2 8 25 15
8 5 5 8 8 8 6 5 6 1 8 10 10 10 11 11 7 10 8 11 14 9 6 5 6 25 -6 -2 9 11 12 15 7 -0 12 3 8 46 29 12 5 26 23 20 17
9 10 10 9 7 7 7 8 9 8 8 7 11 11 13 10 11 8 10 9 7 5 6 6 -10 14 20 10 5 1 1 15 9 4 20 5 41 16 11 -18 32 20 21 16 15
8 8 7 8 8 9 8 8 8 12 13 15 15 22 20 9 13 17 14 13 10 10 8 26 18 2 -6 5 8 16 11 6 6 17 9 5 -3 40 21 9 -1 5 3 20 20
7 9 11 11 10 10 9 9 10 7 13 12 12 11 10 5 1 13 7 7 6 8 6 -5 -0 8 9 18 10 -5 12 9 7 17 20 13 17 -40 14 0 40 16 19 29 12
8 9 8 9 8 9 9 10 7 9 14 9 7 12 8 5 4 3 8 11 13 13 11 16 11 9 2 19 20 13 5 16 31 31 15 7 2 3 -0 17 -13 -4 -4 0 5
6 6 6 7 8 9 10 9 7 4 12 16 10 8 7 2 3 5 9 12 4 14 7 3 33 18 16 1 5 1 22 15 12 5 9 -9 30 -24 -27 11 -1 12 17 1 -7
9 8 8 7 7 8 9 11 5 11 3 1 1 4 3 -0 11 18 7 6 5 25 9 12 8 8 -6 -2 10 14 13 4 15 4 -25 10 21 5 -17 38 -27 4 -17 3 15
8 8 9 9 8 7 8 10 5 16 15 11 7 14 18 23 8 1 15 19 12 2 11 10 8 -22 15 14 12 -10 14 1 8 29 17 12 14 -12 44 -2 -9 7 -14 11 12
9 9 8 8 9 8 7 -6 -0 11 6 7 4 4 2 2 10 3 16 3 17 -9 1 13 12 13 6 7 4 13 5 4 11 10 12 5 6 -4 -35 13 13 -0 6 10 16
8 9 8 10 9 7 3 3 8 11 7 12 12 4 0 6 12 6 7 -7 20 26 -4 -7 22 4 -3 8 -1 8 13 9 9 1 0 5 11 -7 -0 10 1 -21 20 17 6
8 9 11 12 10 9 5 7 9 7 8 7 7 9 7 6 13 19 7 6 -5 1 10 11 7 4 -7 11 22 15 11 16 -6 -2 -28 -7 7 55 -2 -9 -15 23 24 2 8
7 8 8 7 5 8 9 8 8 8 9 12 9 8 5 6 7 17 15 9 -2 11 -1 -13 6 11 20 22 22 6 -6 -10 -9 20 3 6 -20 -13 -15 -7 34 13 3 9 9
7 3 10 5 4 6 8 6 6 5 8 10 6 8 7 6 8 -4 -1 6 1 0 -4 7 11 -4 -15 -17 -8 -6 7 2 16 9 0 -4 -4 4 -1 12 6 27 -6 13 6
8 6 4 -6 25 16 11 -4 9 16 16 16 15 15 15 11 14 13 9 9 7 12 10 6 11 16 3 -4 4 2 1 5 2 3 5 -17 -2 -1 17 9 26 -4 7 17 11
9 5 8 7 12 5 0 0 3 8 7 4 4 7 8 1 -4 -2 1 -0 -1 6 14 8 8 -5 9 20 27 17 3 5 16 22 20 19 20 51 15 11 -7 26 8 4 4
8 12 10 7 7 7 3 6 7 6 10 9 7 7 8 11 10 8 6 7 3 -0 -1 11 14 8 17 26 16 49 58 23 1 12 18 11 24 -10 -9 6 14 5 7 5 4
Height
3171 3173 3172 3173 3174 3174 3177 3178 3182 3182 3184 3188 3190 3192 3193 3195 3196 3198 3198 3199 3198 3197 3197 3196 3196 3195 3195 3194 3194 3194 3195 3192 3191 3189 3188 3185 3184 3182 3181 3179 3178 3178 3177 3177 3176
3170 3171 3172 3173 3173 3175 3176 3178 3181 3183 3186 3189 3191 3193 3195 3196 3197 3198 3198 3198 3197 3197 3196 3195 3195 3195 3194 3193 3192 3192 3190 3189 3187 3185 3184 3182 3181 3178 3178 3176 3174 3174 3173 3172 3172
3169 3171 3172 3172 3173 3175 3177 3179 3182 3184 3187 3189 3190 3193 3195 3196 3198 3197 3196 3197 3196 3196 3195 3194 3193 3193 3192 3191 3190 3187 3187 3185 3183 3181 3180 3178 3176 3174 3173 3170 3172 3171 3168 3167 3167
3168 3169 3171 3171 3173 3176 3177 3180 3183 3185 3187 3190 3191 3193 3194 3196 3199 3195 3195 3195 3195 3194 3193 3192 3192 3191 3190 3188 3186 3184 3183 3181 3179 3178 3175 3174 3172 3170 3168 3168 3167 3166 3164 3163 3163
3168 3168 3170 3170 3173 3176 3178 3180 3183 3185 3187 3190 3191 3192 3194 3196 3195 3194 3194 3193 3193 3192 3191 3190 3190 3189 3187 3185 3184 3181 3180 3178 3176 3174 3172 3169 3168 3165 3162 3164 3161 3160 3159 3158 3158
3168 3169 3169 3171 3174 3175 3178 3181 3184 3185 3187 3189 3190 3191 3192 3195 3193 3192 3192 3191 3191 3190 3189 3188 3186 3185 3184 3183 3182 3179 3177 3175 3173 3171 3168 3166 3163 3160 3161 3159 3157 3156 3155 3154 3153
3168 3169 3170 3173 3173 3174 3178 3180 3183 3184 3186 3188 3188 3189 3190 3192 3190 3190 3189 3188 3188 3187 3186 3185 3184 3183 3181 3180 3178 3176 3173 3171 3169 3168 3166 3163 3159 3158 3157 3155 3153 3152 3150 3148 3147
3168 3170 3170 3172 3173 3175 3177 3179 3181 3183 3185 3186 3186 3187 3187 3187 3187 3187 3187 3186 3185 3185 3183 3182 3181 3180 3179 3178 3176 3174 3171 3169 3167 3165 3163 3161 3151 3154 3152 3149 3147 3145 3143 3142 3142
3169 3169 3171 3172 3172 3174 3176 3177 3179 3181 3182 3183 3184 3184 3184 3184 3184 3183 3183 3183 3182 3181 3181 3180 3179 3178 3177 3175 3173 3170 3170 3167 3164 3162 3159 3157 3147 3149 3146 3142 3139 3138 3136 3134 3134
3167 3168 3169 3169 3171 3174 3175 3176 3177 3178 3179 3180 3181 3184 3181 3182 3181 3181 3180 3180 3179 3178 3178 3178 3176 3175 3174 3172 3171 3170 3167 3165 3162 3159 3154 3151 3141 3140 3139 3134 3131 3130 3128 3126 3126
3166 3167 3167 3169 3171 3173 3173 3174 3177 3177 3176 3178 3178 3178 3178 3180 3179 3178 3177 3177 3178 3175 3175 3175 3174 3172 3172 3168 3167 3165 3163 3160 3158 3154 3148 3146 3136 3133 3130 3126 3124 3122 3120 3118 3118
3163 3164 3165 3169 3171 3171 3171 3171 3173 3174 3173 3173 3173 3173 3174 3176 3175 3175 3175 3175 3174 3173 3171 3173 3169 3169 3167 3165 3163 3161 3159 3156 3153 3150 3146 3140 3131 3128 3125 3123 3119 3116 3115 3113 3113
3161 3164 3166 3167 3166 3168 3168 3169 3170 3170 3171 3170 3169 3169 3171 3173 3172 3172 3172 3171 3170 3169 3169 3168 3167 3164 3163 3161 3159 3158 3156 3154 3152 3147 3142 3136 3127 3126 3125 3121 3117 3114 3112 3110 3109
3161 3162 3162 3163 3167 3165 3166 3167 3167 3168 3169 3168 3166 3167 3168 3169 3169 3169 3168 3170 3167 3167 3166 3164 3163 3162 3160 3159 3157 3154 3153 3150 3148 3146 3143 3139 3132 3124 3121 3120 3117 3114 3111 3109 3107
3157 3159 3160 3161 3162 3163 3166 3165 3166 3168 3168 3167 3165 3165 3166 3168 3168 3167 3166 3165 3165 3164 3165 3164 3160 3159 3157 3155 3154 3153 3149 3147 3144 3141 3139 3136 3136 3122 3120 3117 3115 3113 3110 3107 3105
3156 3158 3159 3160 3161 3162 3163 3164 3165 3168 3164 3164 3164 3164 3165 3165 3165 3165 3164 3163 3162 3161 3160 3159 3157 3155 3153 3152 3151 3150 3147 3142 3139 3137 3137 3134 3135 3121 3119 3117 3115 3113 3110 3105 3102
3154 3156 3157 3158 3160 3160 3161 3163 3166 3163 3162 3162 3162 3162 3163 3164 3163 3163 3162 3162 3161 3161 3158 3156 3154 3152 3152 3152 3150 3148 3146 3141 3136 3134 3131 3132 3131 3118 3117 3115 3113 3110 3107 3103 3100
3151 3153 3154 3156 3157 3158 3159 3162 3161 3158 3158 3159 3160 3161 3162 3162 3161 3160 3160 3160 3159 3158 3157 3155 3153 3152 3152 3151 3149 3146 3146 3146 3140 3132 3130 3129 3124 3116 3113 3112 3110 3107 3103 3100 3096
3149 3149 3151 3153 3154 3155 3157 3158 3156 3155 3156 3158 3159 3159 3160 3159 3160 3159 3158 3157 3156 3155 3157 3154 3151 3150 3149 3147 3147 3144 3144 3143 3140 3134 3132 3121 3116 3114 3109 3109 3108 3104 3099 3094 3091
3145 3146 3148 3150 3151 3152 3153 3152 3153 3154 3154 3156 3157 3157 3158 3158 3159 3158 3155 3154 3153 3153 3152 3151 3149 3146 3146 3145 3144 3143 3142 3140 3138 3131 3121 3113 3114 3110 3106 3104 3102 3097 3092 3088 3084
3142 3143 3145 3147 3148 3148 3147 3149 3150 3151 3152 3154 3153 3154 3155 3156 3155 3155 3153 3152 3149 3148 3149 3148 3148 3146 3143 3141 3139 3138 3137 3136 3135 3131 3120 3110 3105 3106 3103 3101 3095 3093 3088 3083 3077
3138 3140 3141 3142 3144 3143 3142 3144 3146 3146 3148 3149 3149 3149 3150 3150 3150 3150 3149 3148 3146 3146 3146 3145 3143 3141 3139 3136 3134 3133 3132 3132 3130 3124 3120 3114 3097 3096 3097 3095 3090 3087 3084 3077 3073
3133 3135 3136 3137 3137 3137 3138 3140 3141 3141 3142 3143 3144 3144 3145 3146 3147 3144 3144 3144 3143 3143 3142 3141 3139 3137 3133 3133 3131 3129 3128 3127 3124 3118 3110 3108 3090 3094 3093 3092 3086 3080 3077 3072 3069
3129 3130 3130 3131 3132 3133 3135 3136 3136 3137 3138 3139 3139 3140 3140 3141 3141 3140 3140 3140 3139 3139 3139 3137 3134 3133 3129 3130 3129 3125 3122 3120 3119 3111 3095 3097 3079 3086 3085 3084 3078 3074 3071 3067 3062
3121 3122 3124 3125 3126 3128 3130 3131 3131 3133 3133 3134 3134 3135 3136 3136 3135 3135 3136 3135 3134 3134 3133 3133 3127 3127 3123 3122 3119 3115 3112 3112 3109 3100 3098 3074 3084 3078 3078 3073 3069 3067 3062 3059 3056
3114 3116 3117 3119 3121 3123 3124 3124 3126 3128 3129 3129 3129 3130 3131 3131 3131 3130 3130 3130 3129 3128 3127 3126 3122 3119 3113 3113 3110 3103 3101 3095 3091 3089 3086 3079 3074 3074 3069 3065 3064 3061 3055 3051 3047
3106 3108 3111 3112 3114 3117 3117 3119 3119 3122 3122 3122 3123 3124 3124 3125 3124 3123 3122 3122 3122 3121 3121 3120 3118 3117 3101 3107 3102 3095 3085 3085 3084 3082 3078 3075 3075 3067 3064 3060 3058 3054 3049 3044 3038